Temp
12 12 13 13 13 13 13 13 14 15 15 15 15 15 14 14 13 13 12 12 12 12 11 11 10 10 10 9 9 9 8 8 8 9 9 9 8 8 8 8 8 8 9 9
12 13 13 13 13 13 13 13 15 15 14 15 14 14 15 14 14 13 12 12 12 12 11 11 11 11 10 9 9 8 9 9 8 8 8 9 8 8 8 8 8 8 9 9
12 13 13 13 13 13 14 14 15 15 14 14 15 15 15 15 14 14 13 12 12 12 12 11 11 11 10 10 9 8 8 9 9 9 9 9 9 8 8 8 8 8 9 9
12 13 13 13 14 14 15 14 15 15 14 14 14 14 16 15 15 14 14 13 12 12 12 12 11 11 10 10 9 9 9 9 9 9 9 9 9 8 8 8 8 9 9 8
13 14 14 14 15 14 15 14 15 15 15 15 14 13 16 15 15 14 14 14 13 13 12 13 12 12 11 10 9 9 8 9 9 9 9 9 9 8 8 8 8 9 9 9
14 14 14 15 15 15 14 15 15 14 15 13 13 13 16 15 15 15 14 14 14 13 13 13 12 11 11 10 9 9 9 8 9 9 9 9 9 9 9 9 9 9 9 9
14 15 15 15 15 15 15 14 14 12 11 11 14 13 15 15 15 15 15 14 14 14 13 13 13 12 12 11 11 9 9 8 9 10 10 9 9 9 9 9 9 9 8 8
13 15 15 15 15 15 14 14 14 12 9 11 14 15 16 15 15 15 14 14 14 13 14 13 13 13 12 10 11 10 10 9 9 9 10 10 9 10 10 9 9 8 8 8
13 14 15 15 15 15 15 14 15 15 12 12 14 16 16 15 15 15 14 14 14 14 13 13 13 13 12 10 10 10 9 9 9 9 10 10 10 10 10 9 9 8 8 9
13 13 15 15 16 16 16 15 15 14 12 12 14 15 16 16 15 15 14 14 14 14 14 13 13 13 12 11 11 11 10 9 9 9 9 9 9 9 9 9 9 8 8 9
15 13 15 14 15 16 16 15 15 15 14 10 9 14 16 16 15 15 15 14 14 14 14 13 13 13 12 11 11 10 10 10 10 9 9 9 9 9 9 9 9 9 8 8
14 14 14 15 15 15 15 15 15 15 13 13 12 15 16 16 15 15 15 15 15 14 14 13 12 12 12 11 11 10 10 10 10 9 10 9 9 10 9 9 9 9 8 8
14 14 14 14 14 14 14 15 14 14 14 14 12 15 15 16 15 15 15 15 15 14 13 13 12 12 12 11 11 10 10 10 10 10 10 10 10 10 10 9 9 9 9 9
13 13 13 14 14 14 14 14 14 14 14 14 14 14 15 15 15 15 15 15 14 14 14 13 12 12 11 11 10 10 11 11 11 11 11 10 10 10 10 10 9 9 9 9
12 12 12 13 13 13 14 13 14 14 14 14 14 14 14 14 14 14 14 14 14 14 13 13 13 12 12 11 10 10 10 11 11 11 11 11 11 11 10 10 10 10 10 9
11 11 11 11 12 12 12 13 13 13 13 13 13 13 13 13 14 14 14 14 14 14 14 14 13 12 12 12 11 10 11 11 11 10 10 10 10 11 10 10 10 10 10 10
10 10 10 10 11 11 11 12 13 13 13 12 13 13 13 13 13 13 14 14 14 13 13 13 13 13 12 12 11 11 11 11 11 11 11 11 10 10 10 10 10 10 9 9
9 9 9 9 10 8 11 12 13 12 12 12 12 12 13 13 13 13 13 13 13 13 13 13 13 12 12 12 11 10 11 11 11 11 11 11 11 11 10 10 10 10 9 9
9 9 8 9 10 11 11 11 11 11 12 12 12 12 12 13 13 12 12 13 13 13 13 13 13 13 12 12 11 11 10 11 11 11 11 11 11 10 10 10 10 10 10 9
9 9 8 8 9 7 8 8 11 11 10 11 11 11 11 12 12 12 12 12 12 12 13 13 13 13 12 12 12 11 11 11 12 12 11 11 11 11 10 10 10 10 10 10
8 8 8 8 8 8 8 8 9 9 9 9 10 10 10 10 11 11 11 11 12 12 11 12 12 12 12 12 12 12 11 12 12 12 11 11 11 11 11 11 11 10 10 10
7 7 7 7 7 7 7 7 8 8 7 8 8 9 9 9 10 10 10 10 11 11 10 11 11 11 11 12 12 12 11 11 12 12 11 11 11 11 11 11 11 11 11 11
6 6 6 6 6 6 7 7 7 7 7 7 7 7 8 8 8 9 9 9 9 9 10 10 10 11 11 11 11 12 12 12 11 12 12 11 11 11 11 11 11 10 11 11
5 5 5 5 5 5 5 5 5 5 5 5 6 6 6 7 7 8 8 8 8 8 9 9 10 10 11 11 11 11 11 11 12 11 11 11 10 10 10 11 11 10 11 11
4 4 4 4 4 4 4 4 4 4 4 4 4 4 5 5 5 6 6 7 7 7 7 9 9 10 10 10 11 11 11 10 11 12 12 11 6 8 9 10 10 10 11 11
4 4 3 3 3 2 2 3 3 3 3 4 4 4 4 4 4 5 5 5 6 6 6 7 8 8 9 9 10 10 10 10 10 11 11 9 8 6 8 9 10 10 10 11
Height
3176 3178 3177 3180 3181 3181 3180 3179 3177 3173 3171 3168 3166 3164 3162 3163 3161 3161 3162 3162 3163 3168 3171 3172 3175 3176 3178 3179 3180 3181 3182 3183 3185 3186 3189 3191 3192 3194 3196 3198 3200 3202 3204 3206
3176 3174 3177 3178 3180 3180 3179 3177 3173 3172 3169 3166 3165 3161 3159 3158 3156 3157 3159 3160 3161 3164 3168 3171 3173 3174 3176 3177 3178 3179 3180 3180 3182 3184 3186 3188 3189 3191 3194 3196 3199 3201 3203 3205
3174 3175 3176 3177 3178 3177 3176 3175 3173 3171 3168 3166 3162 3157 3155 3153 3152 3154 3155 3156 3156 3159 3164 3168 3170 3172 3175 3176 3177 3178 3178 3179 3179 3182 3183 3185 3187 3189 3191 3194 3197 3201 3203 3204
3173 3174 3175 3175 3175 3175 3173 3173 3171 3169 3167 3165 3162 3156 3150 3150 3150 3150 3151 3151 3152 3154 3159 3164 3168 3170 3172 3174 3176 3177 3178 3177 3176 3178 3181 3183 3185 3187 3190 3193 3196 3199 3201 3202
3173 3173 3173 3173 3174 3174 3173 3171 3170 3168 3166 3164 3162 3160 3150 3149 3149 3149 3148 3147 3147 3150 3155 3161 3165 3168 3170 3170 3173 3176 3177 3176 3175 3176 3179 3181 3183 3184 3187 3191 3194 3197 3199 3201
3170 3170 3170 3171 3172 3172 3171 3170 3169 3167 3165 3163 3160 3162 3151 3151 3150 3149 3147 3145 3145 3147 3151 3156 3161 3163 3165 3168 3170 3171 3172 3175 3174 3175 3177 3179 3181 3183 3185 3189 3193 3196 3197 3200
3169 3167 3167 3168 3169 3169 3168 3168 3168 3168 3166 3164 3159 3159 3153 3151 3150 3149 3148 3145 3145 3146 3149 3153 3156 3159 3162 3163 3165 3167 3170 3173 3173 3174 3176 3178 3180 3182 3184 3187 3190 3194 3196 3198
3168 3167 3166 3167 3167 3165 3163 3165 3166 3169 3169 3161 3159 3157 3153 3151 3149 3147 3147 3145 3145 3146 3148 3151 3153 3156 3159 3160 3163 3165 3168 3170 3171 3172 3174 3176 3178 3180 3183 3185 3188 3191 3194 3196
3167 3165 3165 3164 3163 3164 3160 3160 3163 3163 3163 3163 3159 3156 3152 3151 3148 3147 3147 3146 3145 3145 3146 3147 3150 3155 3158 3157 3159 3161 3164 3167 3169 3171 3172 3174 3176 3179 3181 3184 3186 3189 3191 3194
3166 3165 3161 3162 3161 3160 3159 3160 3161 3161 3164 3165 3158 3156 3153 3150 3149 3148 3147 3146 3145 3143 3144 3146 3147 3152 3156 3157 3157 3157 3160 3165 3167 3169 3171 3172 3173 3176 3178 3180 3183 3186 3188 3190
3161 3164 3159 3162 3160 3158 3158 3156 3157 3160 3161 3161 3164 3157 3154 3150 3148 3149 3148 3148 3146 3145 3144 3145 3147 3150 3154 3155 3157 3159 3160 3163 3165 3167 3168 3170 3171 3173 3175 3178 3181 3183 3186 3188
3160 3160 3158 3160 3158 3156 3155 3155 3155 3156 3159 3159 3160 3157 3153 3151 3149 3149 3149 3149 3147 3145 3144 3146 3146 3149 3153 3155 3156 3158 3159 3161 3163 3164 3166 3167 3169 3171 3173 3176 3179 3181 3184 3186
3158 3157 3157 3157 3158 3156 3155 3155 3156 3156 3156 3156 3158 3155 3152 3151 3150 3150 3148 3148 3148 3147 3145 3145 3145 3148 3151 3154 3156 3156 3158 3160 3161 3163 3163 3164 3166 3169 3172 3175 3177 3179 3180 3183
3155 3154 3153 3153 3154 3154 3153 3152 3152 3153 3153 3153 3153 3152 3151 3150 3150 3150 3148 3147 3147 3148 3147 3147 3146 3147 3148 3150 3153 3154 3156 3159 3160 3162 3163 3164 3165 3167 3169 3172 3175 3178 3179 3180
3152 3150 3149 3148 3148 3148 3148 3148 3148 3149 3150 3150 3151 3150 3150 3149 3147 3147 3147 3145 3144 3146 3147 3148 3149 3147 3148 3149 3151 3153 3155 3157 3159 3161 3163 3164 3165 3167 3169 3170 3173 3175 3177 3179
3146 3146 3145 3145 3144 3144 3143 3143 3143 3145 3146 3145 3146 3146 3146 3146 3145 3144 3142 3140 3141 3142 3143 3144 3146 3148 3148 3149 3150 3153 3154 3156 3158 3159 3161 3162 3164 3166 3168 3171 3173 3174 3175 3177
3140 3140 3141 3140 3142 3140 3139 3139 3139 3139 3141 3143 3143 3144 3144 3143 3143 3139 3137 3136 3137 3138 3140 3141 3142 3145 3149 3149 3150 3151 3153 3154 3155 3158 3159 3160 3162 3164 3166 3168 3170 3173 3174 3175
3131 3134 3137 3135 3137 3137 3133 3134 3134 3135 3137 3138 3139 3139 3141 3140 3139 3136 3135 3134 3135 3136 3136 3136 3137 3138 3139 3141 3144 3147 3148 3149 3152 3154 3156 3157 3159 3162 3164 3166 3168 3170 3172 3172
3128 3128 3130 3131 3130 3130 3130 3129 3130 3131 3133 3133 3133 3134 3134 3135 3135 3133 3132 3131 3130 3130 3131 3130 3131 3133 3132 3135 3138 3141 3142 3147 3149 3151 3154 3156 3158 3160 3161 3164 3166 3167 3167 3168
3126 3125 3126 3126 3127 3126 3125 3123 3125 3126 3127 3127 3127 3128 3128 3128 3129 3128 3128 3127 3126 3124 3124 3125 3125 3126 3127 3129 3133 3136 3139 3142 3145 3150 3153 3155 3156 3158 3158 3159 3160 3161 3162 3162
3124 3123 3123 3123 3123 3122 3122 3121 3122 3124 3126 3121 3122 3123 3122 3122 3123 3123 3123 3122 3120 3118 3119 3119 3119 3121 3122 3125 3129 3132 3135 3139 3143 3144 3148 3152 3153 3153 3154 3154 3155 3156 3157 3157
3122 3122 3121 3121 3120 3121 3119 3120 3122 3120 3118 3118 3118 3118 3118 3117 3117 3118 3118 3117 3115 3113 3113 3114 3114 3116 3116 3121 3124 3126 3129 3131 3134 3137 3139 3141 3147 3149 3149 3150 3149 3149 3150 3149
3121 3120 3120 3121 3118 3117 3116 3116 3116 3117 3116 3116 3114 3113 3113 3112 3112 3112 3112 3112 3110 3107 3107 3107 3108 3109 3112 3114 3116 3120 3120 3123 3127 3126 3129 3133 3137 3142 3143 3144 3143 3142 3141 3142
3115 3115 3115 3115 3114 3113 3112 3111 3111 3111 3110 3109 3108 3107 3105 3105 3105 3105 3105 3104 3103 3102 3101 3101 3100 3101 3103 3106 3107 3108 3110 3115 3114 3110 3119 3124 3125 3132 3136 3137 3138 3140 3136 3134
3110 3110 3109 3107 3108 3107 3106 3105 3103 3102 3102 3102 3100 3099 3098 3096 3096 3095 3095 3095 3095 3095 3093 3094 3093 3093 3093 3097 3099 3100 3101 3103 3104 3106 3110 3109 3106 3118 3126 3129 3131 3133 3132 3128
3103 3102 3102 3100 3100 3098 3097 3098 3097 3094 3094 3093 3090 3089 3089 3087 3085 3085 3084 3085 3086 3086 3087 3087 3086 3086 3087 3088 3090 3092 3093 3095 3092 3095 3093 3093 3102 3080 3108 3118 3123 3125 3124 3121
Wind_Speed
22 15 11 4 8 7 12 18 21 14 12 13 13 17 20 19 23 19 15 11 15 12 8 6 9 9 9 6 4 2 4 15 12 12 14 13 10 10 11 12 12 12 13 13
15 15 5 5 6 9 14 19 15 13 8 13 17 24 25 25 24 22 17 19 13 18 19 15 13 11 6 5 3 2 1 8 14 15 17 14 14 13 12 13 13 14 13 11
10 9 8 3 6 11 13 15 13 15 15 17 22 26 22 14 15 18 17 21 20 19 20 17 17 12 9 3 1 1 1 4 14 18 18 16 14 14 16 15 13 14 14 11
6 8 4 5 9 9 12 17 12 10 13 14 16 13 25 18 7 7 13 15 19 20 25 22 21 14 14 6 5 3 2 4 11 17 16 15 13 13 14 15 13 13 13 11
3 5 9 12 5 9 15 18 12 10 14 18 15 7 13 11 9 7 6 7 15 15 23 24 16 14 14 10 9 7 4 5 8 15 13 13 12 14 16 17 13 12 13 12
7 10 13 11 8 12 16 17 10 13 15 7 7 5 8 15 13 11 10 8 6 12 17 22 22 18 17 20 21 11 5 5 5 12 12 11 11 16 18 18 14 10 11 12
8 6 8 10 12 15 18 16 4 4 5 7 11 10 9 10 10 10 11 10 6 7 13 20 24 19 12 14 21 14 10 7 4 10 14 12 12 14 17 16 14 12 13 14
12 7 9 7 21 21 22 18 10 4 3 10 19 5 11 17 10 6 14 10 7 2 10 17 19 14 20 8 17 13 10 8 4 7 13 15 14 16 15 15 14 13 13 16
5 11 13 16 6 11 4 10 10 9 4 4 7 13 18 10 12 7 8 9 6 6 3 15 16 11 13 23 11 13 11 8 4 6 11 15 17 16 17 16 15 14 13 12
20 20 12 11 15 8 11 5 4 5 1 3 5 11 14 21 10 6 7 12 10 6 3 7 17 12 11 16 8 10 12 9 7 7 9 13 18 18 18 19 18 17 14 14
11 22 19 16 6 5 6 8 9 4 3 4 1 9 16 16 9 9 8 9 17 13 1 6 6 7 11 12 9 8 8 9 8 7 8 12 16 20 19 18 17 18 16 14
10 8 15 10 4 3 4 3 3 5 4 4 2 9 13 11 8 8 10 8 14 20 4 9 7 9 12 13 7 7 9 9 9 8 8 9 15 19 20 18 18 18 17 15
9 10 9 4 7 6 4 2 2 3 2 5 3 6 10 11 8 7 8 10 11 15 7 2 11 11 11 13 9 8 9 9 9 8 7 8 12 16 18 16 17 18 17 15
8 14 16 16 12 8 9 9 7 8 6 7 10 12 6 6 10 11 9 9 10 13 12 5 5 8 13 13 8 7 8 9 8 8 6 6 8 12 14 16 17 16 15 14
9 12 14 13 15 12 12 10 11 13 14 13 13 10 3 2 7 10 11 15 18 16 18 19 9 7 11 13 9 8 12 11 9 10 7 7 9 11 14 14 14 14 13 14
16 8 11 10 8 9 12 12 12 13 15 14 11 11 9 7 10 13 17 23 23 20 16 15 11 10 9 8 7 6 10 12 14 13 11 12 12 11 12 12 12 12 11 13
22 20 14 15 11 14 14 18 15 12 14 9 9 10 14 15 13 16 15 20 20 17 16 18 11 11 9 7 6 7 9 13 15 15 13 13 14 14 13 12 10 7 6 7
22 22 19 17 16 5 12 12 12 12 12 10 8 9 14 16 13 16 17 19 14 17 18 17 19 18 16 15 13 12 13 14 14 16 16 15 15 15 14 11 8 9 12 15
4 12 15 7 13 15 8 10 13 13 14 15 19 21 20 21 18 18 21 23 22 27 25 21 25 21 24 21 17 16 17 16 18 17 18 18 17 16 13 12 14 15 18 20
5 4 13 8 4 6 6 13 25 26 18 18 17 18 19 19 17 19 21 23 25 25 23 22 25 31 28 26 23 20 18 20 21 19 19 20 20 18 18 17 18 17 20 21
5 4 6 14 9 6 7 6 7 10 8 12 15 12 12 14 16 16 17 18 22 28 24 23 26 30 32 29 26 26 23 21 22 24 24 23 24 23 23 22 21 23 25 24
5 4 3 4 5 6 9 7 5 7 9 12 14 15 14 16 19 21 19 19 22 25 22 23 25 23 23 33 28 24 28 29 29 29 29 29 30 30 28 27 26 24 24 23
8 8 6 6 6 9 13 15 16 15 14 15 16 18 19 19 19 19 20 25 24 25 27 26 27 26 24 26 29 25 28 33 37 38 37 35 32 34 34 32 30 24 23 22
16 17 17 18 17 15 15 18 21 23 24 24 24 25 27 27 27 29 30 28 28 31 32 32 32 30 29 28 29 31 30 25 39 36 42 46 39 36 37 35 30 25 22 23
23 21 24 27 25 24 25 26 27 27 27 26 25 26 28 30 29 31 31 32 32 31 32 33 35 35 34 35 33 32 31 30 33 49 52 57 48 37 35 31 26 26 25 25
23 20 19 21 17 19 24 25 28 32 33 33 35 37 36 37 39 38 37 36 33 31 28 31 31 33 34 34 35 32 29 30 31 30 39 45 52 40 30 25 24 25 27 26
Wind_Direction
211 233 229 207 235 274 301 311 318 342 340 288 280 305 312 303 279 273 277 291 256 234 190 203 201 183 189 182 167 89 248 229 233 215 218 219 228 234 229 225 216 216 221 222
208 223 206 180 222 284 303 313 325 325 315 311 302 295 299 290 282 275 270 267 264 232 216 221 208 198 165 190 222 221 289 239 218 217 215 215 220 225 232 226 219 215 219 219
210 143 154 221 288 319 324 319 314 313 301 295 301 312 327 337 282 273 260 259 251 227 217 216 219 210 199 173 143 229 281 243 218 214 224 225 227 225 224 218 201 214 219 222
263 203 241 295 304 337 313 348 314 306 301 291 318 302 338 346 19 298 283 256 238 228 217 214 224 201 217 184 205 199 308 299 215 215 222 220 228 226 224 207 202 207 208 218
197 217 266 288 238 313 309 328 322 286 294 310 317 307 335 2 27 9 308 294 241 237 220 205 200 219 236 212 222 217 252 321 235 217 217 221 224 205 194 196 202 206 205 216
263 268 273 265 272 280 287 300 302 282 304 313 322 338 328 12 331 354 336 310 272 219 194 200 221 229 225 236 230 221 196 272 259 218 212 221 218 204 186 188 192 204 206 212
330 260 238 262 275 280 278 270 283 316 316 236 309 314 310 10 349 335 345 322 322 200 189 193 210 222 227 269 241 219 209 227 255 218 210 217 215 209 193 194 200 206 214 222
307 329 344 322 314 311 288 264 228 222 232 292 315 293 324 332 346 322 8 354 350 310 209 199 205 218 234 195 185 168 185 206 242 221 213 218 224 213 201 197 200 206 220 230
260 289 312 327 298 314 312 218 221 244 309 308 303 327 337 332 351 313 339 360 333 325 276 209 210 197 243 235 207 167 188 202 210 222 218 217 219 222 217 210 211 217 225 227
267 276 297 338 324 331 310 261 223 232 158 273 293 306 314 329 350 22 30 12 5 337 324 217 208 211 231 253 258 187 189 204 206 224 234 224 221 219 215 211 208 210 222 222
274 257 277 303 305 283 301 247 230 221 243 172 298 301 321 332 324 7 27 41 24 15 288 162 187 203 208 223 221 197 196 215 223 230 236 234 227 221 220 218 214 212 220 221
277 245 266 291 240 199 98 106 170 206 207 215 220 286 343 320 302 350 349 328 348 354 4 188 195 200 187 201 202 219 211 223 224 230 239 237 231 225 220 219 218 218 221 228
244 238 257 181 161 159 162 104 112 148 187 206 181 280 311 307 277 343 2 328 320 348 349 187 181 181 186 191 189 207 214 216 228 231 233 232 230 223 219 216 217 217 218 221
286 257 255 248 266 261 230 237 225 232 228 250 252 295 331 317 285 309 279 302 301 294 329 323 191 174 186 178 182 203 210 218 236 228 223 223 211 206 205 208 214 222 222 220
277 263 261 257 254 246 233 232 246 252 259 251 272 259 314 279 282 287 274 284 286 295 288 304 282 201 194 191 192 219 217 225 223 206 208 213 207 206 203 203 207 210 218 228
281 276 288 300 226 210 229 237 230 243 257 256 256 252 252 252 276 282 273 265 269 274 274 274 277 250 215 208 200 237 246 237 231 220 220 212 204 205 197 201 214 225 230 240
275 277 283 282 268 280 272 251 248 257 238 236 264 281 291 290 289 293 282 277 271 255 276 271 251 245 251 240 237 244 260 243 234 229 221 213 206 204 206 206 197 204 223 246
255 263 269 269 277 251 258 245 239 220 228 244 284 305 311 293 287 281 270 270 252 264 284 268 251 246 233 235 227 231 236 235 231 220 215 211 203 200 199 205 221 244 261 269
327 252 236 235 223 248 244 230 225 238 250 265 282 289 287 272 278 272 258 261 261 279 281 270 246 247 240 230 224 221 222 231 228 213 211 208 205 205 215 230 246 257 264 270
289 266 213 213 225 224 238 241 255 261 263 261 260 265 269 274 273 264 254 260 270 277 271 263 255 248 254 227 227 224 220 223 221 220 215 215 221 227 234 242 255 270 280 281
298 275 246 241 238 246 243 251 255 228 252 256 261 260 255 264 268 266 264 269 276 280 273 262 253 248 252 239 236 234 228 226 225 218 222 230 232 239 242 248 257 269 275 275
276 283 254 247 232 232 252 256 260 243 240 257 264 260 250 253 257 262 266 269 267 268 273 272 267 269 261 247 239 254 236 229 225 225 227 228 238 245 248 252 256 265 273 278
264 253 261 264 250 273 286 291 291 286 281 278 279 282 280 280 280 279 274 263 266 276 280 281 271 270 268 269 267 261 239 239 236 230 231 233 238 249 252 255 259 261 266 274
271 276 271 276 276 281 279 279 284 285 284 284 281 281 281 279 277 277 275 271 273 278 278 279 278 278 268 273 269 270 273 267 252 254 243 240 234 241 251 255 255 257 260 274
275 277 282 284 280 282 276 277 277 275 276 276 271 273 276 275 273 275 273 272 274 273 276 272 275 275 265 276 276 271 267 267 262 249 259 248 259 236 238 244 246 252 263 278
285 287 284 290 290 279 274 273 272 275 277 278 276 271 268 270 273 271 269 269 269 271 273 271 273 272 271 275 267 269 271 275 280 280 272 245 248 254 215 227 240 256 268 279